Location: Unspecified
(0.0000°N, 0.0000°E)
Time: 08:51:11
(UTC+00:00)

Explorer 11/Cluster Stage 4 - Pass Details

Date: 17 July 2020
Orbit: 467 x 1259 km, 28.8° (Epoch: 03 August)

Event Time Altitude Azimuth Distance (km) Brightness Sun altitude
Rises 19:25:35 0° 266° (W) 4,181 11.4 -18.5°
Reaches altitude 10° 19:29:27 10° 250° (WSW) 3,231 10.4 -19.4°
Maximum altitude 19:35:07 20° 206° (SSW) 2,508 9.2 -20.7°
Enters shadow 19:39:35 13° 168° (SSE) 2,896 9.1 -21.7°
Drops below altitude 10° 19:40:35 10° 162° (SSE) 3,085 - -21.9°
Sets 19:44:12 0° 146° (SE) 3,938 - -22.8°
